Regional Weather Roundup
Issued by NWS

Home | Current Version | Previous Version | Text Only | Print | Product List | Glossary Off
Versions: 1 2 3 4 5 6 7 8 9 10 11 12 13 14 15 16 17 18 19 20 21 22 23 24 25 26 27 28 29 30 31 32 33 34 35 36 37 38 39 40 41 42 43 44 45 46 47 48 49 50

000
ASUS45 KCYS 270610
RWRWY

WYOMING REGIONAL WEATHER ROUNDUP
NATIONAL WEATHER SERVICE CHEYENNE WY
1200 AM MDT SUN JUL 27 2014

NOTE:  "FAIR" INDICATES FEW OR NO CLOUDS BELOW 12,000 FEET
WITH NO SIGNIFICANT WEATHER AND/OR OBSTRUCTIONS TO VISIBILITY.

WYZ001-270700-
YELLOWSTONE NATIONAL PARK

CITY           SKY/WX    TMP DP  RH WIND       PRES   REMARKS
LK YELLOWSTONE   N/A     43  30  60 NW3       30.48R
6HR MIN TEMP:  43; 6HR MAX TEMP:  73;

W YELLOWSTONE  NOT AVBL

$$
WYZ002>013-054>058-071-098>099-270700-
NORTHERN WYOMING

CITY           SKY/WX    TMP DP  RH WIND       PRES   REMARKS
JACKSON        PTCLDY    48  32  53 N3        30.36R
CODY           NOT AVBL
GREYBULL       PTCLDY    67  30  25 W5        30.20R
6HR MIN TEMP:  67; 6HR MAX TEMP:  88;

WORLAND        PTCLDY    65  32  29 SE6       30.22R
6HR MIN TEMP:  63; 6HR MAX TEMP:  87;

SHERIDAN       CLEAR     52  43  71 N3        30.27R
6HR MIN TEMP:  52; 6HR MAX TEMP:  83;

BUFFALO        PTCLDY    58  35  42 SW8       30.34R
6HR MIN TEMP:  57; 6HR MAX TEMP:  79;

GILLETTE       CLEAR     52  38  58 W3        30.27R
6HR MIN TEMP:  51; 6HR MAX TEMP:  81;

HULETT         FAIR      59  37  44 MISG      30.28
NEWCASTLE      FAIR      59  34  38 CALM      30.27

$$
WYZ014>020-022>026-101>103-270700-
CENTRAL WYOMING

CITY           SKY/WX    TMP DP  RH WIND       PRES   REMARKS
BIG PINEY      CLEAR     56  22  26 N5        30.39R
6HR MIN TEMP:  50; 6HR MAX TEMP:  83;

PINEDALE       CLEAR     48  32  53 W8        30.40S
DUBOIS         FAIR      55  23  28 NW5       30.41R
LANDER         CLEAR     68  30  24 W8        30.31R
6HR MIN TEMP:  67; 6HR MAX TEMP:  90;

RIVERTON       CLEAR     68  32  26 E5        30.32R
6HR MIN TEMP:  68; 6HR MAX TEMP:  88;

CASPER         CLEAR     63  33  32 NE8       30.31R
6HR MIN TEMP:  61; 6HR MAX TEMP:  89;

DOUGLAS        CLEAR     67  35  30 NE7       30.29R
6HR MIN TEMP:  61; 6HR MAX TEMP:  88;


$$
WYZ021-027>030-104>119-270700-
SOUTHERN WYOMING

CITY           SKY/WX    TMP DP  RH WIND       PRES   REMARKS
EVANSTON       PTCLDY    65  28  24 SE5       30.39R
6HR MIN TEMP:  65; 6HR MAX TEMP:  85;

KEMMERER       PTCLDY    61  27  27 N10       30.40S
FORT BRIDGER   FAIR      69  22  17 CALM      30.40S
ROCK SPRINGS   MOCLDY    67  18  15 S3        30.34S
6HR MIN TEMP:  67; 6HR MAX TEMP:  87;

DIXON          FAIR      58  43  57 NE7       30.35R
RAWLINS        CLEAR     68  31  25 NE10      30.34R
6HR MIN TEMP:  68; 6HR MAX TEMP:  87;

SARATOGA       FAIR      63  43  48 SE10      30.36R
LARAMIE        CLEAR     57  49  74 NE5       30.36R
6HR MIN TEMP:  56; 6HR MAX TEMP:  84;

CHEYENNE       PTCLDY    64  51  62 VRB3      30.29R
6HR MIN TEMP:  64; 6HR MAX TEMP:  82;

TORRINGTON     MOCLDY    68  46  45 E13       30.19R
6HR MIN TEMP:  68; 6HR MAX TEMP:  89;

PINE BLUFFS    FAIR      64  61  88 E6        30.25R

$$


USA.gov is the U.S. government's official web portal to all federal, state and local government web resources and services.